sat.trackr.live / text

‹ back to catalog

STARLINK-6069

NORAD 56804 · 2023-078AP

PAYLOAD ACTIVE UNKNOWN

§ Identity

Operator
Country
US
Launch date
2023-05-31
Launch site
AFWTR
Launch vehicle
Mass (kg)
RCS (m²)

Purposes: comms

External: N2YO · Heavens-Above · Gunter

§ Orbital elements

Epoch: 2026-05-25T02:51:21.644928Z

Period
96.11 min
Inclination
69.9988°
Eccentricity
0.0003381
Mean motion
14.98333422 rev/d
Perigee alt
569.7 km
Apogee alt
574.4 km
Semi-major
6,950.2 km
B*
-4.3008e-5
RAAN
131.6812°
Arg perigee
267.7596°
Mean anomaly
92.3176°
Rev number
16,529

§ Raw data

STARLINK-60691 56804U 23078AP  26145.11900052 -.00000606  00000+0 -43008-4 0  99912 56804  69.9988 131.6812 0003381 267.7596  92.3176 14.98333422165293

JSON: /api/v1/satellites/56804 · /tle

For live sub-satellite position, see the globe view (requires WebGL).

§ Visibility from observer

Set your observer location to see the next 7 days of passes ≥ 10°. The values pass through the URL so the page stays shareable.

No JS? Fill the form by hand. The geolocation button needs JavaScript.